Content
SEND FEEDBACK

Daily
Averages
Monthly
Summary
Italy

FLORENCE - AIRPORT, ITALY


Home > Europe > Italy
Elevation: 125 feet     Latitude: 43 48N     Longitude: 011 12E

WEATHER
 
SELECT A DAY
Number of Records: 251,606;   Date Range: 7/1/96 - 12/26/14
 
SHARE

PRINT THIS DATA

[ ← Previous Day ]
WEATHER ALMANAC - AUGUST 18, 2013
[ Next Day → ]
[ °C ]   °F
Weather ElementAverageHighLow
Temperature78 °F91.4 °F (3:20 pm)62.6 °F (6:20 am)
Dewpoint58.1 °F62.6 °F (10:20 am)46.4 °F (3:50 pm)
Humidity54.3 %88 % (5:50 am)21 % (3:50 pm)
Barometer30.03 in30.06 in (6:50 am)29.98 in (5:20 pm)
Wind Speed4.5 mph11.5 mph (5:50 pm)
Weather ElementAverage
Wind DirectionESE (98.7 °)

Weather ElementTotal
Precipitation---
Cooling Degree Days12 (Base 65)
Growing Degree Days27 (Base 50)
Averaged from 46 records on August 18, 2013
WEATHER CONDITIONS BREAKOUT
WIND DIRECTION BREAKOUT
WEATHER BY HOUR - AUGUST 18, 2013
[ °C ]   °F
Local TimeTemperatureDewpointHumidityBarometerVisibilityWind DirectionWind SpeedGust SpeedPrecipitationEventsConditions
12:50 AM69.8 °F59.0 °F68 %30.04 inEast (80°)4.6 mphClear
1:20 AM68.0 °F59.0 °F73 %30.04 inENE (70°)3.5 mphClear
1:50 AM66.2 °F59.0 °F78 %30.04 inEast (80°)3.5 mphClear
2:20 AM68.0 °F59.0 °F73 %30.04 inEast (80°)3.5 mphClear
2:50 AM68.0 °F59.0 °F73 %30.04 inENE (70°)3.5 mphClear
3:20 AM66.2 °F59.0 °F78 %30.04 inEast (80°)4.6 mphClear
3:50 AM68.0 °F59.0 °F73 %30.04 inEast (100°)2.3 mphClear
4:20 AM66.2 °F59.0 °F78 %30.04 inVariable2.3 mphClear
4:50 AM64.4 °F59.0 °F83 %30.04 inNE (50°)2.3 mphClear
5:50 AM64.4 °F60.8 °F88 %30.04 inCalmClear
6:20 AM62.6 °F59.0 °F88 %30.04 inCalmClear
6:50 AM66.2 °F59.0 °F78 %30.06 inVariable2.3 mphClear
7:20 AM66.2 °F59.0 °F78 %30.06 inVariable2.3 mphClear
7:50 AM69.8 °F59.0 °F68 %30.06 inVariable1.2 mphClear
8:20 AM71.6 °F60.8 °F69 %30.06 inCalmClear
8:50 AM71.6 °F59.0 °F64 %30.06 inCalmClear
9:20 AM75.2 °F60.8 °F61 %30.06 inCalmClear
9:50 AM75.2 °F60.8 °F61 %30.06 inVariable2.3 mphClear
10:20 AM77.0 °F62.6 °F61 %30.06 inVariable2.3 mphClear
10:50 AM80.6 °F62.6 °F54 %30.06 inVariable2.3 mphClear
11:20 AM82.4 °F60.8 °F48 %30.06 inVariable2.3 mphClear
11:50 AM84.2 °F59.0 °F42 %30.06 inVariable3.5 mphClear
12:20 PM86.0 °F59.0 °F40 %30.06 inVariable4.6 mphClear
12:50 PM86.0 °F60.8 °F43 %30.04 inVariable4.6 mphClear
1:20 PM87.8 °F57.2 °F35 %30.04 inSSW (210°)8.1 mphClear
1:50 PM89.6 °F59.0 °F36 %30.04 inVariable5.8 mphClear
2:20 PM89.6 °F55.4 °F31 %30.04 inSW (220°)8.1 mphClear
2:50 PM89.6 °F55.4 °F31 %30.01 inSW (220°)8.1 mphClear
3:20 PM91.4 °F53.6 °F28 %30.01 inVariable6.9 mphClear
3:50 PM91.4 °F46.4 °F21 %30.01 inWSW (240°)8.1 mphClear
4:20 PM91.4 °F53.6 °F28 %30.01 inWSW (240°)8.1 mphClear
4:50 PM91.4 °F53.6 °F28 %30.01 inWSW (240°)8.1 mphClear
5:20 PM91.4 °F53.6 °F28 %29.98 inSW (230°)9.2 mphClear
5:50 PM89.6 °F55.4 °F31 %29.98 inSW (230°)11.5 mphClear
6:20 PM87.8 °F57.2 °F35 %29.98 inWest (260°)11.5 mphClear
6:50 PM87.8 °F57.2 °F35 %30.01 inWSW (250°)9.2 mphClear
7:20 PM86.0 °F57.2 °F37 %30.01 inWest (260°)9.2 mphClear
7:50 PM84.2 °F55.4 °F37 %30.01 inWest (270°)6.9 mphClear
8:20 PM82.4 °F55.4 °F39 %30.01 inWest (270°)4.6 mphClear
8:50 PM80.6 °F57.2 °F45 %30.01 inWest (270°)5.8 mphClear
9:20 PM78.8 °F59.0 °F51 %30.01 inVariable2.3 mphClear
9:50 PM78.8 °F59.0 °F51 %30.04 inVariable2.3 mphClear
10:20 PM75.2 °F60.8 °F61 %30.04 inSSW (200°)3.5 mphClear
10:50 PM77.0 °F60.8 °F57 %30.04 inSouth (190°)3.5 mphClear
11:20 PM71.6 °F59.0 °F64 %30.04 inENE (60°)3.5 mphClear
11:50 PM69.8 °F59.0 °F68 %30.04 inENE (70°)4.6 mphClear
Hourly data recorded from LIRQ, located miles away from Florence - Airport, Italy







STORIES FROM OUR PARTNERS